Simultaneous Nadir Overpasses (SNOs) Predictions

Prediction of SNOs between AQUA and METOP-B Satellite Orbit:

Table of predicted SNOs for the next 14.0 days since TLE Epoch: 7/21/2023
Index Date (AQUA) Time (AQUA) Lat,Lon (AQUA) SZA (AQUA ) Date (METOP-B) Time (METOP-B) Lat,Lon (METOP-B) SZA (METOP-B ) Distance(km) Time Diff (sec)
1 07/24/2023 03:57:21 -74.65, -63.36 125.28 07/24/2023 03:56:40 -74.63, -63.35 125.29 1.77 41
2 07/24/2023 04:46:47 74.69, 104.17 54.78 07/24/2023 04:47:18 74.72, 104.22 54.80 3.15 31
3 07/26/2023 21:00:13 74.13,-137.84 54.75 07/26/2023 20:59:06 74.07,-140.37 54.78 77.55 67
4 07/26/2023 21:49:47 -74.66, 28.53 124.68 07/26/2023 21:49:36 -74.64, 28.44 124.69 3.25 11
5 07/26/2023 22:39:13 74.71,-163.95 55.39 07/26/2023 22:40:14 74.73,-164.00 55.40 2.65 61
6 07/29/2023 14:52:49 74.66, -47.19 55.95 07/29/2023 14:51:51 74.66, -47.10 55.95 2.68 58
7 07/29/2023 15:42:14 -74.72, 120.30 123.99 07/29/2023 15:42:32 -74.69, 120.33 124.01 2.79 18
8 08/01/2023 08:45:14 74.67, 44.69 56.63 08/01/2023 08:44:47 74.69, 44.76 56.66 3.01 27
9 08/01/2023 09:34:39 -74.73,-147.80 123.30 08/01/2023 09:35:28 -74.74,-147.80 123.30 0.47 49
10 08/04/2023 01:48:12 -74.62, -30.90 122.73 08/04/2023 01:47:05 -74.65, -30.95 122.70 2.89 67
11 08/04/2023 02:37:38 74.69, 136.58 57.36 08/04/2023 02:37:43 74.73, 136.60 57.39 3.55 5



Historial Predications of SNOs between AQUA and METOP-B
